Volver al catálogo

USA 294

ActivoMilitarVLEO
NORAD 45110·PAYLOAD·🇺🇸 United States

Lanzado Jan 31, 2020 desde Rocket Lab Launch Complex 1

Loading…

Próximos Pases (próximas 24 horas)

TLE

ObsoletoSource: Mike McCants

Época: Aug 20, 2023, 19:25 UTC

1 45110U 20007A   23232.80903846 0.00110000  00000-0  32750-2 0    04
2 45110  69.9913 111.5649 0009740 159.9373 200.0626 15.34502222    06

Sigue USA 294 en tiempo real con AllMySat

Download on the App Store